Location: Longueuil
(45.5369°N, 73.5107°W)
Time: 17:47:06
(UTC-04:00)

ISS - Visible Passes

Search period start: 23 September 2018 00:00
Search period end: 03 October 2018 00:00
Orbit: 403 x 408 km, 51.6° (Epoch: 23 September)

Date Brightness Start Highest point End Pass type
(mag) Time Alt. Az. Time Alt. Az. Time Alt. Az.
23 Sep -3.0 19:45:36 10° SSW 19:48:35 33° SE 19:50:28 18° E visible
23 Sep -1.3 21:21:50 10° W 21:23:11 21° W 21:23:11 21° W visible
24 Sep -3.6 20:29:47 10° WSW 20:33:05 70° NNW 20:33:41 53° NE visible
25 Sep -3.9 19:37:54 10° SW 19:41:10 73° SSE 19:44:03 13° ENE visible
25 Sep -1.5 21:14:52 10° W 21:16:44 25° NW 21:16:44 25° NW visible
26 Sep -2.7 20:22:41 10° W 20:25:50 41° NNW 20:26:59 29° NNE visible
27 Sep -3.3 19:30:34 10° WSW 19:33:49 59° NNW 19:37:06 10° ENE visible
27 Sep -1.5 21:07:52 10° WNW 21:09:48 23° NW 21:09:48 23° NW visible
28 Sep -2.3 20:15:40 10° WNW 20:18:39 30° N 20:19:53 23° NNE visible
29 Sep -2.6 19:23:26 10° W 19:26:33 37° NNW 19:29:40 10° NE visible
29 Sep -1.5 21:00:43 10° WNW 21:02:35 23° NNW 21:02:35 23° NNW visible
30 Sep -2.2 20:08:34 10° WNW 20:11:28 27° N 20:12:34 22° NNE visible
01 Oct -2.3 19:16:21 10° WNW 19:19:18 29° N 19:22:15 10° NE visible
01 Oct -1.7 20:53:21 10° NW 20:55:12 24° NNW 20:55:12 24° NNW visible
02 Oct -2.4 20:01:18 10° NW 20:04:13 28° N 20:05:09 24° NE visible
